Tracking 32954 objects as of 18-Jan-2026
HD Live streaming from Space Station
objects crossing your sky now

FREGAT DEB

Track FREGAT DEB now!
10-day predictions


NORAD ID: 45979
Int'l Code: 2011-037GL
Perigee: 710.5 km
Apogee: 4,020.9 km
Inclination: 51.5 °
Period: 135.5 minutes
Semi major axis: 8736 km
RCS: Unknown
Launch date: July 18, 2011
Source: Commonwealth of Independent States (former USSR) (CIS)
Launch site: TYURATAM MISSILE AND SPACE COMPLEX (TTMTR)

Note: This is SATELLITE DEBRIS
Your satellite tracking list
Your tracking list is empty




NASA's NSSDC Master Catalog

Two Line Element Set (TLE):
1 45979U 11037GL  26017.83583592  .00000410  00000-0  84558-3 0  9993
2 45979  51.5075 169.3606 1894511 196.9561 155.8381 10.63118781212952
Source of the keplerian elements: AFSPC